Year,Month,Day,Hour,Minute,Value (Times are PST for temperature in C)
2015,08,18,00,00,17.50
2015,08,18,00,01,17.40
2015,08,18,00,02,17.40
2015,08,18,00,03,17.40
2015,08,18,00,04,17.40
2015,08,18,00,05,17.40
2015,08,18,00,06,17.40
2015,08,18,00,07,17.40
2015,08,18,00,08,17.30
2015,08,18,00,09,17.30
2015,08,18,00,10,17.30
2015,08,18,00,11,17.30
2015,08,18,00,12,17.30
2015,08,18,00,13,17.30
2015,08,18,00,14,17.30
2015,08,18,00,15,17.30
2015,08,18,00,16,17.30
2015,08,18,00,17,17.30
2015,08,18,00,18,17.30
2015,08,18,00,19,17.30
2015,08,18,00,20,17.30
2015,08,18,00,21,17.30
2015,08,18,00,22,17.30
2015,08,18,00,23,17.30
2015,08,18,00,24,17.30
2015,08,18,00,25,17.30
2015,08,18,00,26,17.30
2015,08,18,00,27,17.30
2015,08,18,00,28,17.30
2015,08,18,00,29,17.30
2015,08,18,00,30,17.30
2015,08,18,00,31,17.30
2015,08,18,00,32,17.30
2015,08,18,00,33,17.20
2015,08,18,00,34,17.20
2015,08,18,00,35,17.20
2015,08,18,00,36,17.20
2015,08,18,00,37,17.20
2015,08,18,00,38,17.10
2015,08,18,00,39,17.10
2015,08,18,00,40,17.10
2015,08,18,00,41,17.00
2015,08,18,00,42,17.00
2015,08,18,00,43,17.00
2015,08,18,00,44,16.90
2015,08,18,00,45,16.90
2015,08,18,00,46,16.90
2015,08,18,00,47,16.90
2015,08,18,00,48,16.80
2015,08,18,00,49,16.80
2015,08,18,00,50,16.80
2015,08,18,00,51,16.80
2015,08,18,00,52,16.80
2015,08,18,00,53,16.80
2015,08,18,00,54,16.70
2015,08,18,00,55,16.70
2015,08,18,00,56,16.70
2015,08,18,00,57,16.70
2015,08,18,00,58,16.70
2015,08,18,00,59,16.70
2015,08,18,01,00,16.70
2015,08,18,01,01,16.70
2015,08,18,01,02,16.70
2015,08,18,01,03,16.70
2015,08,18,01,04,16.70
2015,08,18,01,05,16.70
2015,08,18,01,06,16.70
2015,08,18,01,07,16.70
2015,08,18,01,08,16.70
2015,08,18,01,09,16.70
2015,08,18,01,10,16.70
2015,08,18,01,11,16.70
2015,08,18,01,12,16.70
2015,08,18,01,13,16.70
2015,08,18,01,14,16.70
2015,08,18,01,15,16.70
2015,08,18,01,16,16.70
2015,08,18,01,17,16.70
2015,08,18,01,18,16.70
2015,08,18,01,19,16.70
2015,08,18,01,20,16.70
2015,08,18,01,21,16.60
2015,08,18,01,22,16.60
2015,08,18,01,23,16.60
2015,08,18,01,24,16.60
2015,08,18,01,25,16.60
2015,08,18,01,26,16.60
2015,08,18,01,27,16.50
2015,08,18,01,28,16.50
2015,08,18,01,29,16.50
2015,08,18,01,30,16.40
2015,08,18,01,31,16.40
2015,08,18,01,32,16.40
2015,08,18,01,33,16.30
2015,08,18,01,34,16.30
2015,08,18,01,35,16.30
2015,08,18,01,36,16.30
2015,08,18,01,37,16.30
2015,08,18,01,38,16.20
2015,08,18,01,39,16.20
2015,08,18,01,40,16.20
2015,08,18,01,41,16.20
2015,08,18,01,42,16.20
2015,08,18,01,43,16.10
2015,08,18,01,44,16.10
2015,08,18,01,45,16.10
2015,08,18,01,46,16.10
2015,08,18,01,47,16.10
2015,08,18,01,48,16.00
2015,08,18,01,49,16.00
2015,08,18,01,50,16.00
2015,08,18,01,51,15.90
2015,08,18,01,52,15.90
2015,08,18,01,53,15.90
2015,08,18,01,54,15.90
2015,08,18,01,55,15.90
2015,08,18,01,56,15.80
2015,08,18,01,57,15.80
2015,08,18,01,58,15.80
2015,08,18,01,59,15.80
2015,08,18,02,00,15.80
2015,08,18,02,01,15.80
2015,08,18,02,02,15.80
2015,08,18,02,03,15.70
2015,08,18,02,04,15.70
2015,08,18,02,05,15.70
2015,08,18,02,06,15.60
2015,08,18,02,07,15.60
2015,08,18,02,08,15.60
2015,08,18,02,09,15.60
2015,08,18,02,10,15.50
2015,08,18,02,11,15.50
2015,08,18,02,12,15.50
2015,08,18,02,13,15.50
2015,08,18,02,14,15.50
2015,08,18,02,15,15.40
2015,08,18,02,16,15.40
2015,08,18,02,17,15.40
2015,08,18,02,18,15.40
2015,08,18,02,19,15.40
2015,08,18,02,20,15.40
2015,08,18,02,21,15.30
2015,08,18,02,22,15.20
2015,08,18,02,23,15.20
2015,08,18,02,24,15.10
2015,08,18,02,25,15.00
2015,08,18,02,26,14.90
2015,08,18,02,27,14.90
2015,08,18,02,28,14.80
2015,08,18,02,29,14.80
2015,08,18,02,30,14.80
2015,08,18,02,31,14.70
2015,08,18,02,32,14.70
2015,08,18,02,33,14.70
2015,08,18,02,34,14.70
2015,08,18,02,35,14.60
2015,08,18,02,36,14.60
2015,08,18,02,37,14.60
2015,08,18,02,38,14.60
2015,08,18,02,39,14.60
2015,08,18,02,40,14.60
2015,08,18,02,41,14.60
2015,08,18,02,42,14.60
2015,08,18,02,43,14.60
2015,08,18,02,44,14.50
2015,08,18,02,45,14.60
2015,08,18,02,46,14.60
2015,08,18,02,47,14.60
2015,08,18,02,48,14.60
2015,08,18,02,49,14.50
2015,08,18,02,50,14.50
2015,08,18,02,51,14.50
2015,08,18,02,52,14.50
2015,08,18,02,53,14.50
2015,08,18,02,54,14.40
2015,08,18,02,55,14.40
2015,08,18,02,56,14.40
2015,08,18,02,57,14.40
2015,08,18,02,58,14.40
2015,08,18,02,59,14.40
2015,08,18,03,00,14.40
2015,08,18,03,01,14.40
2015,08,18,03,02,14.30
2015,08,18,03,03,14.30
2015,08,18,03,04,14.30
2015,08,18,03,05,14.30
2015,08,18,03,06,14.30
2015,08,18,03,07,14.30
2015,08,18,03,08,14.30
2015,08,18,03,09,14.30
2015,08,18,03,10,14.30
2015,08,18,03,11,14.30
2015,08,18,03,12,14.30
2015,08,18,03,13,14.30
2015,08,18,03,14,14.30
2015,08,18,03,15,14.30
2015,08,18,03,16,14.30
2015,08,18,03,17,14.20
2015,08,18,03,18,14.20
2015,08,18,03,19,14.20
2015,08,18,03,20,14.20
2015,08,18,03,21,14.20
2015,08,18,03,22,14.20
2015,08,18,03,23,14.20
2015,08,18,03,24,14.20
2015,08,18,03,25,14.30
2015,08,18,03,26,14.30
2015,08,18,03,27,14.30
2015,08,18,03,28,14.30
2015,08,18,03,29,14.30
2015,08,18,03,30,14.30
2015,08,18,03,31,14.40
2015,08,18,03,32,14.40
2015,08,18,03,33,14.40
2015,08,18,03,34,14.40
2015,08,18,03,35,14.40
2015,08,18,03,36,14.50
2015,08,18,03,37,14.50
2015,08,18,03,38,14.50
2015,08,18,03,39,14.50
2015,08,18,03,40,14.50
2015,08,18,03,41,14.50
2015,08,18,03,42,14.50
2015,08,18,03,43,14.50
2015,08,18,03,44,14.50
2015,08,18,03,45,14.50
2015,08,18,03,46,14.50
2015,08,18,03,47,14.50
2015,08,18,03,48,14.50
2015,08,18,03,49,14.50
2015,08,18,03,50,14.50
2015,08,18,03,51,14.50
2015,08,18,03,52,14.50
2015,08,18,03,53,14.50
2015,08,18,03,54,14.50
2015,08,18,03,55,14.50
2015,08,18,03,56,14.50
2015,08,18,03,57,14.60
2015,08,18,03,58,14.60
2015,08,18,03,59,14.60
2015,08,18,04,00,14.60
2015,08,18,04,01,14.60
2015,08,18,04,02,14.60
2015,08,18,04,03,14.60
2015,08,18,04,04,14.60
2015,08,18,04,05,14.60
2015,08,18,04,06,14.50
2015,08,18,04,07,14.60
2015,08,18,04,08,14.50
2015,08,18,04,09,14.50
2015,08,18,04,10,14.50
2015,08,18,04,11,14.50
2015,08,18,04,12,14.60
2015,08,18,04,13,14.50
2015,08,18,04,14,14.50
2015,08,18,04,15,14.50
2015,08,18,04,16,14.50
2015,08,18,04,17,14.50
2015,08,18,04,18,14.40
2015,08,18,04,19,14.40
2015,08,18,04,20,14.40
2015,08,18,04,21,14.40
2015,08,18,04,22,14.30
2015,08,18,04,23,14.30
2015,08,18,04,24,14.30
2015,08,18,04,25,14.20
2015,08,18,04,26,14.20
2015,08,18,04,27,14.20
2015,08,18,04,28,14.20
2015,08,18,04,29,14.20
2015,08,18,04,30,14.20
2015,08,18,04,31,14.20
2015,08,18,04,32,14.20
2015,08,18,04,33,14.20
2015,08,18,04,34,14.20
2015,08,18,04,35,14.20
2015,08,18,04,36,14.20
2015,08,18,04,37,14.20
2015,08,18,04,38,14.20
2015,08,18,04,39,14.20
2015,08,18,04,40,14.20
2015,08,18,04,41,14.20
2015,08,18,04,42,14.20
2015,08,18,04,43,14.20
2015,08,18,04,44,14.20
2015,08,18,04,45,14.20
2015,08,18,04,46,14.20
2015,08,18,04,47,14.20
2015,08,18,04,48,14.20
2015,08,18,04,49,14.20
2015,08,18,04,50,14.20
2015,08,18,04,51,14.20
2015,08,18,04,52,14.20
2015,08,18,04,53,14.20
2015,08,18,04,54,14.20
2015,08,18,04,55,14.20
2015,08,18,04,56,14.30
2015,08,18,04,57,14.20
2015,08,18,04,58,14.20
2015,08,18,04,59,14.20
2015,08,18,05,00,14.30
2015,08,18,05,01,14.20
2015,08,18,05,02,14.20
2015,08,18,05,03,14.30
2015,08,18,05,04,14.30
2015,08,18,05,05,14.30
2015,08,18,05,06,14.30
2015,08,18,05,07,14.30
2015,08,18,05,08,14.30
2015,08,18,05,09,14.40
2015,08,18,05,10,14.40
2015,08,18,05,11,14.40
2015,08,18,05,12,14.40
2015,08,18,05,13,14.50
2015,08,18,05,14,14.50
2015,08,18,05,15,14.50
2015,08,18,05,16,14.50
2015,08,18,05,17,14.60
2015,08,18,05,18,14.60
2015,08,18,05,19,14.60
2015,08,18,05,20,14.60
2015,08,18,05,21,14.70
2015,08,18,05,22,14.70
2015,08,18,05,23,14.70
2015,08,18,05,24,14.70
2015,08,18,05,25,14.70
2015,08,18,05,26,14.60
2015,08,18,05,27,14.60
2015,08,18,05,28,14.60
2015,08,18,05,29,14.60
2015,08,18,05,30,14.60
2015,08,18,05,31,14.60
2015,08,18,05,32,14.60
2015,08,18,05,33,14.60
2015,08,18,05,34,14.70
2015,08,18,05,35,14.70
2015,08,18,05,36,14.80
2015,08,18,05,37,14.80
2015,08,18,05,38,14.80
2015,08,18,05,39,14.90
2015,08,18,05,40,14.90
2015,08,18,05,41,14.90
2015,08,18,05,42,14.90
2015,08,18,05,43,14.90
2015,08,18,05,44,14.90
2015,08,18,05,45,14.90
2015,08,18,05,46,14.90
2015,08,18,05,47,14.90
2015,08,18,05,48,14.80
2015,08,18,05,49,14.80
2015,08,18,05,50,14.80
2015,08,18,05,51,14.80
2015,08,18,05,52,14.80
2015,08,18,05,53,14.80
2015,08,18,05,54,14.70
2015,08,18,05,55,14.70
2015,08,18,05,56,14.70
2015,08,18,05,57,14.70
2015,08,18,05,58,14.70
2015,08,18,05,59,14.80
2015,08,18,06,00,14.80
2015,08,18,06,01,14.80
2015,08,18,06,02,14.80
2015,08,18,06,03,14.80
2015,08,18,06,04,14.80
2015,08,18,06,05,14.80
2015,08,18,06,06,14.80
2015,08,18,06,07,14.80
2015,08,18,06,08,14.80
2015,08,18,06,09,14.80
2015,08,18,06,10,14.90
2015,08,18,06,11,14.90
2015,08,18,06,12,14.90
2015,08,18,06,13,14.90
2015,08,18,06,14,14.90
2015,08,18,06,15,14.90
2015,08,18,06,16,14.80
2015,08,18,06,17,14.80
2015,08,18,06,18,14.80
2015,08,18,06,19,14.80
2015,08,18,06,20,14.70
2015,08,18,06,21,14.70
2015,08,18,06,22,14.70
2015,08,18,06,23,14.70
2015,08,18,06,24,14.70
2015,08,18,06,25,14.60
2015,08,18,06,26,14.60
2015,08,18,06,27,14.60
2015,08,18,06,28,14.60
2015,08,18,06,29,14.60
2015,08,18,06,30,14.60
2015,08,18,06,31,14.60
2015,08,18,06,32,14.60
2015,08,18,06,33,14.60
2015,08,18,06,34,14.70
2015,08,18,06,35,14.70
2015,08,18,06,36,14.70
2015,08,18,06,37,14.70
2015,08,18,06,38,14.70
2015,08,18,06,39,14.70
2015,08,18,06,40,14.70
2015,08,18,06,41,14.80
2015,08,18,06,42,14.80
2015,08,18,06,43,14.80
2015,08,18,06,44,14.80
2015,08,18,06,45,14.80
2015,08,18,06,46,14.80
2015,08,18,06,47,14.80
2015,08,18,06,48,14.90
2015,08,18,06,49,14.90
2015,08,18,06,50,14.90
2015,08,18,06,51,14.90
2015,08,18,06,52,14.90
2015,08,18,06,53,15.00
2015,08,18,06,54,15.00
2015,08,18,06,55,15.10
2015,08,18,06,56,15.10
2015,08,18,06,57,15.20
2015,08,18,06,58,15.20
2015,08,18,06,59,15.20
2015,08,18,07,00,15.30
2015,08,18,07,01,15.30
2015,08,18,07,02,15.30
2015,08,18,07,03,15.30
2015,08,18,07,04,15.30
2015,08,18,07,05,15.40
2015,08,18,07,06,15.40
2015,08,18,07,07,15.50
2015,08,18,07,08,15.50
2015,08,18,07,09,15.50
2015,08,18,07,10,15.60
2015,08,18,07,11,15.60
2015,08,18,07,12,15.60
2015,08,18,07,13,15.60
2015,08,18,07,14,15.60
2015,08,18,07,15,15.70
2015,08,18,07,16,15.70
2015,08,18,07,17,15.80
2015,08,18,07,18,15.80
2015,08,18,07,19,15.90
2015,08,18,07,20,15.90
2015,08,18,07,21,16.00
2015,08,18,07,22,16.00
2015,08,18,07,23,16.10
2015,08,18,07,24,16.20
2015,08,18,07,25,16.20
2015,08,18,07,26,16.30
2015,08,18,07,27,16.40
2015,08,18,07,28,16.40
2015,08,18,07,29,16.50
2015,08,18,07,30,16.60
2015,08,18,07,31,16.70
2015,08,18,07,32,16.70
2015,08,18,07,33,16.80
2015,08,18,07,34,16.90
2015,08,18,07,35,17.00
2015,08,18,07,36,17.10
2015,08,18,07,37,17.10
2015,08,18,07,38,17.20
2015,08,18,07,39,17.30
2015,08,18,07,40,17.30
2015,08,18,07,41,17.40
2015,08,18,07,42,17.50
2015,08,18,07,43,17.60
2015,08,18,07,44,17.70
2015,08,18,07,45,17.70
2015,08,18,07,46,17.80
2015,08,18,07,47,17.80
2015,08,18,07,48,17.80
2015,08,18,07,49,17.80
2015,08,18,07,50,17.90
2015,08,18,07,51,17.90
2015,08,18,07,52,17.90
2015,08,18,07,53,18.00
2015,08,18,07,54,18.00
2015,08,18,07,55,18.10
2015,08,18,07,56,18.10
2015,08,18,07,57,18.20
2015,08,18,07,58,18.20
2015,08,18,07,59,18.20
2015,08,18,08,00,18.20
2015,08,18,08,01,18.30
2015,08,18,08,02,18.30
2015,08,18,08,03,18.30
2015,08,18,08,04,18.30
2015,08,18,08,05,18.30
2015,08,18,08,06,18.30
2015,08,18,08,07,18.30
2015,08,18,08,08,18.30
2015,08,18,08,09,18.30
2015,08,18,08,10,18.30
2015,08,18,08,11,18.30
2015,08,18,08,12,18.30
2015,08,18,08,13,18.40
2015,08,18,08,14,18.40
2015,08,18,08,15,18.40
2015,08,18,08,16,18.40
2015,08,18,08,17,18.50
2015,08,18,08,18,18.50
2015,08,18,08,19,18.60
2015,08,18,08,20,18.60
2015,08,18,08,21,18.70
2015,08,18,08,22,18.70
2015,08,18,08,23,18.80
2015,08,18,08,24,18.80
2015,08,18,08,25,18.90
2015,08,18,08,26,18.90
2015,08,18,08,27,19.00
2015,08,18,08,28,19.00
2015,08,18,08,29,19.10
2015,08,18,08,30,19.10
2015,08,18,08,31,19.20
2015,08,18,08,32,19.20
2015,08,18,08,33,19.30
2015,08,18,08,34,19.30
2015,08,18,08,35,19.40
2015,08,18,08,36,19.40
2015,08,18,08,37,19.50
2015,08,18,08,38,19.50
2015,08,18,08,39,19.60
2015,08,18,08,40,19.60
2015,08,18,08,41,19.60
2015,08,18,08,42,19.70
2015,08,18,08,43,19.70
2015,08,18,08,44,19.80
2015,08,18,08,45,19.80
2015,08,18,08,46,19.80
2015,08,18,08,47,19.80
2015,08,18,08,48,19.80
2015,08,18,08,49,19.80
2015,08,18,08,50,19.80
2015,08,18,08,51,19.80
2015,08,18,08,52,19.80
2015,08,18,08,53,19.80
2015,08,18,08,54,19.80
2015,08,18,08,55,19.80
2015,08,18,08,56,19.90
2015,08,18,08,57,19.90
2015,08,18,08,58,19.90
2015,08,18,08,59,19.90
2015,08,18,09,00,20.00
2015,08,18,09,01,20.00
2015,08,18,09,02,20.10
2015,08,18,09,03,20.10
2015,08,18,09,04,20.20
2015,08,18,09,05,20.20
2015,08,18,09,06,20.20
2015,08,18,09,07,20.20
2015,08,18,09,08,20.20
2015,08,18,09,09,20.30
2015,08,18,09,10,20.30
2015,08,18,09,11,20.30
2015,08,18,09,12,20.40
2015,08,18,09,13,20.40
2015,08,18,09,14,20.50
2015,08,18,09,15,20.60
2015,08,18,09,16,20.60
2015,08,18,09,17,20.60
2015,08,18,09,18,20.60
2015,08,18,09,19,20.70
2015,08,18,09,20,20.70
2015,08,18,09,21,20.70
2015,08,18,09,22,20.70
2015,08,18,09,23,20.70
2015,08,18,09,24,20.80
2015,08,18,09,25,20.80
2015,08,18,09,26,20.80
2015,08,18,09,27,20.80
2015,08,18,09,28,20.80
2015,08,18,09,29,20.80
2015,08,18,09,30,20.80
2015,08,18,09,31,20.90
2015,08,18,09,32,20.90
2015,08,18,09,33,20.90
2015,08,18,09,34,20.90
2015,08,18,09,35,20.90
2015,08,18,09,36,21.00
2015,08,18,09,37,21.00
2015,08,18,09,38,21.00
2015,08,18,09,39,21.00
2015,08,18,09,40,21.00
2015,08,18,09,41,21.00
2015,08,18,09,42,21.00
2015,08,18,09,43,21.10
2015,08,18,09,44,21.10
2015,08,18,09,45,21.10
2015,08,18,09,46,21.10
2015,08,18,09,47,21.10
2015,08,18,09,48,21.10
2015,08,18,09,49,21.10
2015,08,18,09,50,21.10
2015,08,18,09,51,21.10
2015,08,18,09,52,21.10
2015,08,18,09,53,21.10
2015,08,18,09,54,21.10
2015,08,18,09,55,21.10
2015,08,18,09,56,21.10
2015,08,18,09,57,21.10
2015,08,18,09,58,21.20
2015,08,18,09,59,21.20
2015,08,18,10,00,21.20
2015,08,18,10,01,21.20
2015,08,18,10,02,21.30
2015,08,18,10,03,21.30
2015,08,18,10,04,21.30
2015,08,18,10,05,21.30
2015,08,18,10,06,21.30
2015,08,18,10,07,21.40
2015,08,18,10,08,21.40
2015,08,18,10,09,21.40
2015,08,18,10,10,21.50
2015,08,18,10,11,21.50
2015,08,18,10,12,21.60
2015,08,18,10,13,21.60
2015,08,18,10,14,21.60
2015,08,18,10,15,21.60
2015,08,18,10,16,21.60
2015,08,18,10,17,21.70
2015,08,18,10,18,21.70
2015,08,18,10,19,21.70
2015,08,18,10,20,21.80
2015,08,18,10,21,21.80
2015,08,18,10,22,21.90
2015,08,18,10,23,21.90
2015,08,18,10,24,21.90
2015,08,18,10,25,21.90
2015,08,18,10,26,21.90
2015,08,18,10,27,22.00
2015,08,18,10,28,22.00
2015,08,18,10,29,22.00
2015,08,18,10,30,22.10
2015,08,18,10,31,22.10
2015,08,18,10,32,22.10
2015,08,18,10,33,22.10
2015,08,18,10,34,22.10
2015,08,18,10,35,22.20
2015,08,18,10,36,22.20
2015,08,18,10,37,22.30
2015,08,18,10,38,22.30
2015,08,18,10,39,22.30
2015,08,18,10,40,22.40
2015,08,18,10,41,22.50
2015,08,18,10,42,22.60
2015,08,18,10,43,22.60
2015,08,18,10,44,22.60
2015,08,18,10,45,22.60
2015,08,18,10,46,22.60
2015,08,18,10,47,22.60
2015,08,18,10,48,22.60
2015,08,18,10,49,22.50
2015,08,18,10,50,22.50
2015,08,18,10,51,22.50
2015,08,18,10,52,22.40
2015,08,18,10,53,22.40
2015,08,18,10,54,22.40
2015,08,18,10,55,22.40
2015,08,18,10,56,22.30
2015,08,18,10,57,22.30
2015,08,18,10,58,22.30
2015,08,18,10,59,22.30
2015,08,18,11,00,22.30
2015,08,18,11,01,22.30
2015,08,18,11,02,22.30
2015,08,18,11,03,22.30
2015,08,18,11,04,22.40
2015,08,18,11,05,22.50
2015,08,18,11,06,22.50
2015,08,18,11,07,22.60
2015,08,18,11,08,22.60
2015,08,18,11,09,22.70
2015,08,18,11,10,22.70
2015,08,18,11,11,22.70
2015,08,18,11,12,22.70
2015,08,18,11,13,22.70
2015,08,18,11,14,22.70
2015,08,18,11,15,22.70
2015,08,18,11,16,22.60
2015,08,18,11,17,22.60
2015,08,18,11,18,22.60
2015,08,18,11,19,22.60
2015,08,18,11,20,22.70
2015,08,18,11,21,22.70
2015,08,18,11,22,22.80
2015,08,18,11,23,22.90
2015,08,18,11,24,23.00
2015,08,18,11,25,23.10
2015,08,18,11,26,23.20
2015,08,18,11,27,23.20
2015,08,18,11,28,23.20
2015,08,18,11,29,23.20
2015,08,18,11,30,23.30
2015,08,18,11,31,23.30
2015,08,18,11,32,23.30
2015,08,18,11,33,23.40
2015,08,18,11,34,23.40
2015,08,18,11,35,23.40
2015,08,18,11,36,23.50
2015,08,18,11,37,23.50
2015,08,18,11,38,23.60
2015,08,18,11,39,23.60
2015,08,18,11,40,23.60
2015,08,18,11,41,23.70
2015,08,18,11,42,23.70
2015,08,18,11,43,23.70
2015,08,18,11,44,23.70
2015,08,18,11,45,23.70
2015,08,18,11,46,23.70
2015,08,18,11,47,23.70
2015,08,18,11,48,23.80
2015,08,18,11,49,23.80
2015,08,18,11,50,23.80
2015,08,18,11,51,23.80
2015,08,18,11,52,23.80
2015,08,18,11,53,23.80
2015,08,18,11,54,23.90
2015,08,18,11,55,23.90
2015,08,18,11,56,23.90
2015,08,18,11,57,23.90
2015,08,18,11,58,24.00
2015,08,18,11,59,24.00
2015,08,18,12,00,24.10
2015,08,18,12,01,24.10
2015,08,18,12,02,24.00
2015,08,18,12,03,23.90
2015,08,18,12,04,23.90
2015,08,18,12,05,23.80
2015,08,18,12,06,23.80
2015,08,18,12,07,23.80
2015,08,18,12,08,23.80
2015,08,18,12,09,23.80
2015,08,18,12,10,23.90
2015,08,18,12,11,23.90
2015,08,18,12,12,23.90
2015,08,18,12,13,24.00
2015,08,18,12,14,24.00
2015,08,18,12,15,24.00
2015,08,18,12,16,24.00
2015,08,18,12,17,24.10
2015,08,18,12,18,24.10
2015,08,18,12,19,24.10
2015,08,18,12,20,24.10
2015,08,18,12,21,24.10
2015,08,18,12,22,24.10
2015,08,18,12,23,24.20
2015,08,18,12,24,24.20
2015,08,18,12,25,24.30
2015,08,18,12,26,24.30
2015,08,18,12,27,24.30
2015,08,18,12,28,24.20
2015,08,18,12,29,24.20
2015,08,18,12,30,24.20
2015,08,18,12,31,24.20
2015,08,18,12,32,24.20
2015,08,18,12,33,24.30
2015,08,18,12,34,24.40
2015,08,18,12,35,24.40
2015,08,18,12,36,24.50
2015,08,18,12,37,24.50
2015,08,18,12,38,24.60
2015,08,18,12,39,24.70
2015,08,18,12,40,24.70
2015,08,18,12,41,24.70
2015,08,18,12,42,24.60
2015,08,18,12,43,24.60
2015,08,18,12,44,24.50
2015,08,18,12,45,24.50
2015,08,18,12,46,24.50
2015,08,18,12,47,24.50
2015,08,18,12,48,24.40
2015,08,18,12,49,24.40
2015,08,18,12,50,24.40
2015,08,18,12,51,24.40
2015,08,18,12,52,24.50
2015,08,18,12,53,24.50
2015,08,18,12,54,24.60
2015,08,18,12,55,24.60
2015,08,18,12,56,24.60
2015,08,18,12,57,24.60
2015,08,18,12,58,24.60
2015,08,18,12,59,24.70
2015,08,18,13,00,24.70
2015,08,18,13,01,24.80
2015,08,18,13,02,24.80
2015,08,18,13,03,24.80
2015,08,18,13,04,24.80
2015,08,18,13,05,24.80
2015,08,18,13,06,24.80
2015,08,18,13,07,24.80
2015,08,18,13,08,24.80
2015,08,18,13,09,24.80
2015,08,18,13,10,24.80
2015,08,18,13,11,24.80
2015,08,18,13,12,24.80
2015,08,18,13,13,24.80
2015,08,18,13,14,24.80
2015,08,18,13,15,24.80
2015,08,18,13,16,24.80
2015,08,18,13,17,24.90
2015,08,18,13,18,24.90
2015,08,18,13,19,25.00
2015,08,18,13,20,25.10
2015,08,18,13,21,25.10
2015,08,18,13,22,25.20
2015,08,18,13,23,25.20
2015,08,18,13,24,25.20
2015,08,18,13,25,25.10
2015,08,18,13,26,25.10
2015,08,18,13,27,25.10
2015,08,18,13,28,25.10
2015,08,18,13,29,25.00
2015,08,18,13,30,24.90
2015,08,18,13,31,24.90
2015,08,18,13,32,24.80
2015,08,18,13,33,24.80
2015,08,18,13,34,24.80
2015,08,18,13,35,24.90
2015,08,18,13,36,24.90
2015,08,18,13,37,25.00
2015,08,18,13,38,25.10
2015,08,18,13,39,25.10
2015,08,18,13,40,25.20
2015,08,18,13,41,25.20
2015,08,18,13,42,25.30
2015,08,18,13,43,25.30
2015,08,18,13,44,25.30
2015,08,18,13,45,25.30
2015,08,18,13,46,25.30
2015,08,18,13,47,25.30
2015,08,18,13,48,25.30
2015,08,18,13,49,25.30
2015,08,18,13,50,25.30
2015,08,18,13,51,25.40
2015,08,18,13,52,25.40
2015,08,18,13,53,25.40
2015,08,18,13,54,25.40
2015,08,18,13,55,25.50
2015,08,18,13,56,25.50
2015,08,18,13,57,25.60
2015,08,18,13,58,25.60
2015,08,18,13,59,25.60
2015,08,18,14,00,25.70
2015,08,18,14,01,25.70
2015,08,18,14,02,25.70
2015,08,18,14,03,25.70
2015,08,18,14,04,25.70
2015,08,18,14,05,25.70
2015,08,18,14,06,25.70
2015,08,18,14,07,25.70
2015,08,18,14,08,25.70
2015,08,18,14,09,25.70
2015,08,18,14,10,25.70
2015,08,18,14,11,25.70
2015,08,18,14,12,25.70
2015,08,18,14,13,25.70
2015,08,18,14,14,25.70
2015,08,18,14,15,25.70
2015,08,18,14,16,25.80
2015,08,18,14,17,25.90
2015,08,18,14,18,25.90
2015,08,18,14,19,26.00
2015,08,18,14,20,26.10
2015,08,18,14,21,26.20
2015,08,18,14,22,26.30
2015,08,18,14,23,26.30
2015,08,18,14,24,26.40
2015,08,18,14,25,26.50
2015,08,18,14,26,26.60
2015,08,18,14,27,26.60
2015,08,18,14,28,26.70
2015,08,18,14,29,26.70
2015,08,18,14,30,26.70
2015,08,18,14,31,26.70
2015,08,18,14,32,26.70
2015,08,18,14,33,26.70
2015,08,18,14,34,26.70
2015,08,18,14,35,26.70
2015,08,18,14,36,26.70
2015,08,18,14,37,26.80
2015,08,18,14,38,26.80
2015,08,18,14,39,26.80
2015,08,18,14,40,26.80
2015,08,18,14,41,26.80
2015,08,18,14,42,26.80
2015,08,18,14,43,26.90
2015,08,18,14,44,26.90
2015,08,18,14,45,26.80
2015,08,18,14,46,26.80
2015,08,18,14,47,26.70
2015,08,18,14,48,26.70
2015,08,18,14,49,26.70
2015,08,18,14,50,26.70
2015,08,18,14,51,26.70
2015,08,18,14,52,26.70
2015,08,18,14,53,26.70
2015,08,18,14,54,26.70
2015,08,18,14,55,26.70
2015,08,18,14,56,26.60
2015,08,18,14,57,26.60
2015,08,18,14,58,26.60
2015,08,18,14,59,26.50
2015,08,18,15,00,26.50
2015,08,18,15,01,26.40
2015,08,18,15,02,26.40
2015,08,18,15,03,26.50
2015,08,18,15,04,26.50
2015,08,18,15,05,26.60
2015,08,18,15,06,26.60
2015,08,18,15,07,26.70
2015,08,18,15,08,26.70
2015,08,18,15,09,26.60
2015,08,18,15,10,26.60
2015,08,18,15,11,26.50
2015,08,18,15,12,26.40
2015,08,18,15,13,26.40
2015,08,18,15,14,26.40
2015,08,18,15,15,26.40
2015,08,18,15,16,26.40
2015,08,18,15,17,26.30
2015,08,18,15,18,26.30
2015,08,18,15,19,26.30
2015,08,18,15,20,26.30
2015,08,18,15,21,26.20
2015,08,18,15,22,26.20
2015,08,18,15,23,26.10
2015,08,18,15,24,26.10
2015,08,18,15,25,26.10
2015,08,18,15,26,26.00
2015,08,18,15,27,26.00
2015,08,18,15,28,26.00
2015,08,18,15,29,26.00
2015,08,18,15,30,26.00
2015,08,18,15,31,26.10
2015,08,18,15,32,26.10
2015,08,18,15,33,26.20
2015,08,18,15,34,26.20
2015,08,18,15,35,26.20
2015,08,18,15,36,26.20
2015,08,18,15,37,26.10
2015,08,18,15,38,26.10
2015,08,18,15,39,26.00
2015,08,18,15,40,25.90
2015,08,18,15,41,25.80
2015,08,18,15,42,25.80
2015,08,18,15,43,25.70
2015,08,18,15,44,25.70
2015,08,18,15,45,25.60
2015,08,18,15,46,25.60
2015,08,18,15,47,25.50
2015,08,18,15,48,25.40
2015,08,18,15,49,25.40
2015,08,18,15,50,25.40
2015,08,18,15,51,25.40
2015,08,18,15,52,25.40
2015,08,18,15,53,25.40
2015,08,18,15,54,25.30
2015,08,18,15,55,25.30
2015,08,18,15,56,25.40
2015,08,18,15,57,25.40
2015,08,18,15,58,25.50
2015,08,18,15,59,25.50
2015,08,18,16,00,25.60
2015,08,18,16,01,25.60
2015,08,18,16,02,25.60
2015,08,18,16,03,25.60
2015,08,18,16,04,25.60
2015,08,18,16,05,25.60
2015,08,18,16,06,25.60
2015,08,18,16,07,25.50
2015,08,18,16,08,25.60
2015,08,18,16,09,25.60
2015,08,18,16,10,25.60
2015,08,18,16,11,25.60
2015,08,18,16,12,25.60
2015,08,18,16,13,25.60
2015,08,18,16,14,25.60
2015,08,18,16,15,25.60
2015,08,18,16,16,25.60
2015,08,18,16,17,25.60
2015,08,18,16,18,25.60
2015,08,18,16,19,25.70
2015,08,18,16,20,25.70
2015,08,18,16,21,25.70
2015,08,18,16,22,25.70
2015,08,18,16,23,25.70
2015,08,18,16,24,25.70
2015,08,18,16,25,25.70
2015,08,18,16,26,25.70
2015,08,18,16,27,25.80
2015,08,18,16,28,25.80
2015,08,18,16,29,25.90
2015,08,18,16,30,26.00
2015,08,18,16,31,26.00
2015,08,18,16,32,26.10
2015,08,18,16,33,26.10
2015,08,18,16,34,26.20
2015,08,18,16,35,26.10
2015,08,18,16,36,26.20
2015,08,18,16,37,26.20
2015,08,18,16,38,26.20
2015,08,18,16,39,26.30
2015,08,18,16,40,26.30
2015,08,18,16,41,26.30
2015,08,18,16,42,26.40
2015,08,18,16,43,26.40
2015,08,18,16,44,26.40
2015,08,18,16,45,26.30
2015,08,18,16,46,26.30
2015,08,18,16,47,26.20
2015,08,18,16,48,26.20
2015,08,18,16,49,26.20
2015,08,18,16,50,26.20
2015,08,18,16,51,26.20
2015,08,18,16,52,26.20
2015,08,18,16,53,26.20
2015,08,18,16,54,26.30
2015,08,18,16,55,26.30
2015,08,18,16,56,26.30
2015,08,18,16,57,26.30
2015,08,18,16,58,26.40
2015,08,18,16,59,26.40
2015,08,18,17,00,26.40
2015,08,18,17,01,26.40
2015,08,18,17,02,26.40
2015,08,18,17,03,26.40
2015,08,18,17,04,26.40
2015,08,18,17,05,26.40
2015,08,18,17,06,26.50
2015,08,18,17,07,26.50
2015,08,18,17,08,26.60
2015,08,18,17,09,26.60
2015,08,18,17,10,26.70
2015,08,18,17,11,26.70
2015,08,18,17,12,26.70
2015,08,18,17,13,26.80
2015,08,18,17,14,26.80
2015,08,18,17,15,26.80
2015,08,18,17,16,26.80
2015,08,18,17,17,26.80
2015,08,18,17,18,26.90
2015,08,18,17,19,26.90